Year,Month,Day,Hour,Minute,Value (Times are PST for temperature in C)
2008,08,17,00,00,21.90
2008,08,17,00,01,21.90
2008,08,17,00,02,21.90
2008,08,17,00,03,22.00
2008,08,17,00,04,22.00
2008,08,17,00,05,22.00
2008,08,17,00,06,22.00
2008,08,17,00,07,22.00
2008,08,17,00,08,22.00
2008,08,17,00,09,22.00
2008,08,17,00,10,22.00
2008,08,17,00,11,21.90
2008,08,17,00,12,21.90
2008,08,17,00,13,21.90
2008,08,17,00,14,21.90
2008,08,17,00,15,21.80
2008,08,17,00,16,21.80
2008,08,17,00,17,21.80
2008,08,17,00,18,21.80
2008,08,17,00,19,21.80
2008,08,17,00,20,21.80
2008,08,17,00,21,21.80
2008,08,17,00,22,21.80
2008,08,17,00,23,21.80
2008,08,17,00,24,21.80
2008,08,17,00,25,21.80
2008,08,17,00,26,21.80
2008,08,17,00,27,21.80
2008,08,17,00,28,21.80
2008,08,17,00,29,21.80
2008,08,17,00,30,21.80
2008,08,17,00,31,21.80
2008,08,17,00,32,21.80
2008,08,17,00,33,21.70
2008,08,17,00,34,21.70
2008,08,17,00,35,21.70
2008,08,17,00,36,21.60
2008,08,17,00,37,21.60
2008,08,17,00,38,21.60
2008,08,17,00,39,21.60
2008,08,17,00,40,21.60
2008,08,17,00,41,21.50
2008,08,17,00,42,21.40
2008,08,17,00,43,21.40
2008,08,17,00,44,21.30
2008,08,17,00,45,21.30
2008,08,17,00,46,21.30
2008,08,17,00,47,21.30
2008,08,17,00,48,21.20
2008,08,17,00,49,21.20
2008,08,17,00,50,21.10
2008,08,17,00,51,21.10
2008,08,17,00,52,21.10
2008,08,17,00,53,21.00
2008,08,17,00,54,21.00
2008,08,17,00,55,21.00
2008,08,17,00,56,20.90
2008,08,17,00,57,20.90
2008,08,17,00,58,20.80
2008,08,17,00,59,20.80
2008,08,17,01,00,20.80
2008,08,17,01,01,20.70
2008,08,17,01,02,20.70
2008,08,17,01,03,20.70
2008,08,17,01,04,20.60
2008,08,17,01,05,20.60
2008,08,17,01,06,20.60
2008,08,17,01,07,20.50
2008,08,17,01,08,20.50
2008,08,17,01,09,20.50
2008,08,17,01,10,20.40
2008,08,17,01,11,20.40
2008,08,17,01,12,20.30
2008,08,17,01,13,20.30
2008,08,17,01,14,20.20
2008,08,17,01,15,20.20
2008,08,17,01,16,20.20
2008,08,17,01,17,20.20
2008,08,17,01,18,20.10
2008,08,17,01,19,20.10
2008,08,17,01,20,20.10
2008,08,17,01,21,20.00
2008,08,17,01,22,19.90
2008,08,17,01,23,19.90
2008,08,17,01,24,19.90
2008,08,17,01,25,19.90
2008,08,17,01,26,19.90
2008,08,17,01,27,19.90
2008,08,17,01,28,19.90
2008,08,17,01,29,19.90
2008,08,17,01,30,19.90
2008,08,17,01,31,19.90
2008,08,17,01,32,19.90
2008,08,17,01,33,19.90
2008,08,17,01,34,19.90
2008,08,17,01,35,19.90
2008,08,17,01,36,19.90
2008,08,17,01,37,19.90
2008,08,17,01,38,19.90
2008,08,17,01,39,19.90
2008,08,17,01,40,19.90
2008,08,17,01,41,19.80
2008,08,17,01,42,19.80
2008,08,17,01,43,19.80
2008,08,17,01,44,19.80
2008,08,17,01,45,19.80
2008,08,17,01,46,19.80
2008,08,17,01,47,19.80
2008,08,17,01,48,19.80
2008,08,17,01,49,19.80
2008,08,17,01,50,19.80
2008,08,17,01,51,19.80
2008,08,17,01,52,19.70
2008,08,17,01,53,19.70
2008,08,17,01,54,19.70
2008,08,17,01,55,19.70
2008,08,17,01,56,19.70
2008,08,17,01,57,19.70
2008,08,17,01,58,19.70
2008,08,17,01,59,19.70
2008,08,17,02,00,19.70
2008,08,17,02,01,19.70
2008,08,17,02,02,19.70
2008,08,17,02,03,19.70
2008,08,17,02,04,19.60
2008,08,17,02,05,19.60
2008,08,17,02,06,19.60
2008,08,17,02,07,19.60
2008,08,17,02,08,19.60
2008,08,17,02,09,19.50
2008,08,17,02,10,19.50
2008,08,17,02,11,19.50
2008,08,17,02,12,19.50
2008,08,17,02,13,19.50
2008,08,17,02,14,19.50
2008,08,17,02,15,19.50
2008,08,17,02,16,19.50
2008,08,17,02,17,19.50
2008,08,17,02,18,19.50
2008,08,17,02,19,19.50
2008,08,17,02,20,19.50
2008,08,17,02,21,19.50
2008,08,17,02,22,19.50
2008,08,17,02,23,19.50
2008,08,17,02,24,19.50
2008,08,17,02,25,19.50
2008,08,17,02,26,19.50
2008,08,17,02,27,19.40
2008,08,17,02,28,19.40
2008,08,17,02,29,19.40
2008,08,17,02,30,19.40
2008,08,17,02,31,19.40
2008,08,17,02,32,19.40
2008,08,17,02,33,19.40
2008,08,17,02,34,19.30
2008,08,17,02,35,19.30
2008,08,17,02,36,19.30
2008,08,17,02,37,19.30
2008,08,17,02,38,19.20
2008,08,17,02,39,19.20
2008,08,17,02,40,19.20
2008,08,17,02,41,19.20
2008,08,17,02,42,19.20
2008,08,17,02,43,19.10
2008,08,17,02,44,19.10
2008,08,17,02,45,19.10
2008,08,17,02,46,19.10
2008,08,17,02,47,19.10
2008,08,17,02,48,19.10
2008,08,17,02,49,19.10
2008,08,17,02,50,19.10
2008,08,17,02,51,19.10
2008,08,17,02,52,19.10
2008,08,17,02,53,19.10
2008,08,17,02,54,19.10
2008,08,17,02,55,19.10
2008,08,17,02,56,19.10
2008,08,17,02,57,19.10
2008,08,17,02,58,19.10
2008,08,17,02,59,19.10
2008,08,17,03,00,19.10
2008,08,17,03,01,19.10
2008,08,17,03,02,19.10
2008,08,17,03,03,19.10
2008,08,17,03,04,19.10
2008,08,17,03,05,19.10
2008,08,17,03,06,19.10
2008,08,17,03,07,19.10
2008,08,17,03,08,19.10
2008,08,17,03,09,19.10
2008,08,17,03,10,19.10
2008,08,17,03,11,19.10
2008,08,17,03,12,19.10
2008,08,17,03,13,19.10
2008,08,17,03,14,19.10
2008,08,17,03,15,19.10
2008,08,17,03,16,19.10
2008,08,17,03,17,19.10
2008,08,17,03,18,19.10
2008,08,17,03,19,19.10
2008,08,17,03,20,19.10
2008,08,17,03,21,19.10
2008,08,17,03,22,19.10
2008,08,17,03,23,19.10
2008,08,17,03,24,19.10
2008,08,17,03,25,19.10
2008,08,17,03,26,19.10
2008,08,17,03,27,19.10
2008,08,17,03,28,19.10
2008,08,17,03,29,19.10
2008,08,17,03,30,19.10
2008,08,17,03,31,19.10
2008,08,17,03,32,18.90
2008,08,17,03,33,18.90
2008,08,17,03,34,18.90
2008,08,17,03,35,18.90
2008,08,17,03,36,18.90
2008,08,17,03,37,18.90
2008,08,17,03,38,18.90
2008,08,17,03,39,18.90
2008,08,17,03,40,18.90
2008,08,17,03,41,18.80
2008,08,17,03,42,18.80
2008,08,17,03,43,18.70
2008,08,17,03,44,18.70
2008,08,17,03,45,18.60
2008,08,17,03,46,18.60
2008,08,17,03,47,18.50
2008,08,17,03,48,18.50
2008,08,17,03,49,18.50
2008,08,17,03,50,18.40
2008,08,17,03,51,18.40
2008,08,17,03,52,18.30
2008,08,17,03,53,18.30
2008,08,17,03,54,18.20
2008,08,17,03,55,18.20
2008,08,17,03,56,18.20
2008,08,17,03,57,18.20
2008,08,17,03,58,18.20
2008,08,17,03,59,18.20
2008,08,17,04,00,18.20
2008,08,17,04,01,18.20
2008,08,17,04,02,18.20
2008,08,17,04,03,18.20
2008,08,17,04,04,18.20
2008,08,17,04,05,18.20
2008,08,17,04,06,18.20
2008,08,17,04,07,18.20
2008,08,17,04,08,18.20
2008,08,17,04,09,18.20
2008,08,17,04,10,18.20
2008,08,17,04,11,18.10
2008,08,17,04,12,18.10
2008,08,17,04,13,18.10
2008,08,17,04,14,18.10
2008,08,17,04,15,18.20
2008,08,17,04,16,18.20
2008,08,17,04,17,18.20
2008,08,17,04,18,18.20
2008,08,17,04,19,18.20
2008,08,17,04,20,18.20
2008,08,17,04,21,18.10
2008,08,17,04,22,18.10
2008,08,17,04,23,18.10
2008,08,17,04,24,18.10
2008,08,17,04,25,18.10
2008,08,17,04,26,18.10
2008,08,17,04,27,18.10
2008,08,17,04,28,18.10
2008,08,17,04,29,18.10
2008,08,17,04,30,18.10
2008,08,17,04,31,18.00
2008,08,17,04,32,17.90
2008,08,17,04,33,17.90
2008,08,17,04,34,17.90
2008,08,17,04,35,17.90
2008,08,17,04,36,17.90
2008,08,17,04,37,17.90
2008,08,17,04,38,17.90
2008,08,17,04,39,17.90
2008,08,17,04,40,17.90
2008,08,17,04,41,17.90
2008,08,17,04,42,17.90
2008,08,17,04,43,17.90
2008,08,17,04,44,17.90
2008,08,17,04,45,17.80
2008,08,17,04,46,17.80
2008,08,17,04,47,17.80
2008,08,17,04,48,17.80
2008,08,17,04,49,17.70
2008,08,17,04,50,17.70
2008,08,17,04,51,17.70
2008,08,17,04,52,17.70
2008,08,17,04,53,17.60
2008,08,17,04,54,17.60
2008,08,17,04,55,17.60
2008,08,17,04,56,17.60
2008,08,17,04,57,17.50
2008,08,17,04,58,17.50
2008,08,17,04,59,17.50
2008,08,17,05,00,17.50
2008,08,17,05,01,17.50
2008,08,17,05,02,17.50
2008,08,17,05,03,17.50
2008,08,17,05,04,17.50
2008,08,17,05,05,17.50
2008,08,17,05,06,17.50
2008,08,17,05,07,17.50
2008,08,17,05,08,17.50
2008,08,17,05,09,17.50
2008,08,17,05,10,17.50
2008,08,17,05,11,17.50
2008,08,17,05,12,17.50
2008,08,17,05,13,17.50
2008,08,17,05,14,17.50
2008,08,17,05,15,17.40
2008,08,17,05,16,17.40
2008,08,17,05,17,17.40
2008,08,17,05,18,17.40
2008,08,17,05,19,17.40
2008,08,17,05,20,17.40
2008,08,17,05,21,17.40
2008,08,17,05,22,17.40
2008,08,17,05,23,17.40
2008,08,17,05,24,17.40
2008,08,17,05,25,17.40
2008,08,17,05,26,17.40
2008,08,17,05,27,17.40
2008,08,17,05,28,17.40
2008,08,17,05,29,17.50
2008,08,17,05,30,17.50
2008,08,17,05,31,17.50
2008,08,17,05,32,17.50
2008,08,17,05,33,17.60
2008,08,17,05,34,17.60
2008,08,17,05,35,17.60
2008,08,17,05,36,17.60
2008,08,17,05,37,17.60
2008,08,17,05,38,17.50
2008,08,17,05,39,17.50
2008,08,17,05,40,17.50
2008,08,17,05,41,17.50
2008,08,17,05,42,17.50
2008,08,17,05,43,17.40
2008,08,17,05,44,17.40
2008,08,17,05,45,17.40
2008,08,17,05,46,17.40
2008,08,17,05,47,17.40
2008,08,17,05,48,17.40
2008,08,17,05,49,17.40
2008,08,17,05,50,17.50
2008,08,17,05,51,17.50
2008,08,17,05,52,17.50
2008,08,17,05,53,17.60
2008,08,17,05,54,17.60
2008,08,17,05,55,17.60
2008,08,17,05,56,17.70
2008,08,17,05,57,17.70
2008,08,17,05,58,17.70
2008,08,17,05,59,17.70
2008,08,17,06,00,17.70
2008,08,17,06,01,17.70
2008,08,17,06,02,17.70
2008,08,17,06,03,17.70
2008,08,17,06,04,17.70
2008,08,17,06,05,17.70
2008,08,17,06,06,17.80
2008,08,17,06,07,17.80
2008,08,17,06,08,17.80
2008,08,17,06,09,17.80
2008,08,17,06,10,17.80
2008,08,17,06,11,17.90
2008,08,17,06,12,17.90
2008,08,17,06,13,17.90
2008,08,17,06,14,17.90
2008,08,17,06,15,17.90
2008,08,17,06,16,17.90
2008,08,17,06,17,17.90
2008,08,17,06,18,17.90
2008,08,17,06,19,17.90
2008,08,17,06,20,17.90
2008,08,17,06,21,17.90
2008,08,17,06,22,17.90
2008,08,17,06,23,18.00
2008,08,17,06,24,18.10
2008,08,17,06,25,18.10
2008,08,17,06,26,18.10
2008,08,17,06,27,18.10
2008,08,17,06,28,18.10
2008,08,17,06,29,18.20
2008,08,17,06,30,18.20
2008,08,17,06,31,18.20
2008,08,17,06,32,18.20
2008,08,17,06,33,18.20
2008,08,17,06,34,18.20
2008,08,17,06,35,18.20
2008,08,17,06,36,18.20
2008,08,17,06,37,18.20
2008,08,17,06,38,18.30
2008,08,17,06,39,18.30
2008,08,17,06,40,18.30
2008,08,17,06,41,18.30
2008,08,17,06,42,18.30
2008,08,17,06,43,18.30
2008,08,17,06,44,18.40
2008,08,17,06,45,18.40
2008,08,17,06,46,18.40
2008,08,17,06,47,18.50
2008,08,17,06,48,18.50
2008,08,17,06,49,18.50
2008,08,17,06,50,18.50
2008,08,17,06,51,18.60
2008,08,17,06,52,18.60
2008,08,17,06,53,18.70
2008,08,17,06,54,18.70
2008,08,17,06,55,18.80
2008,08,17,06,56,18.80
2008,08,17,06,57,18.90
2008,08,17,06,58,18.90
2008,08,17,06,59,18.90
2008,08,17,07,00,18.90
2008,08,17,07,01,18.90
2008,08,17,07,02,18.90
2008,08,17,07,03,18.90
2008,08,17,07,04,18.90
2008,08,17,07,05,18.90
2008,08,17,07,06,18.90
2008,08,17,07,07,18.90
2008,08,17,07,08,18.90
2008,08,17,07,09,18.90
2008,08,17,07,10,18.90
2008,08,17,07,11,19.00
2008,08,17,07,12,19.10
2008,08,17,07,13,19.10
2008,08,17,07,14,19.10
2008,08,17,07,15,19.10
2008,08,17,07,16,19.10
2008,08,17,07,17,19.10
2008,08,17,07,18,18.90
2008,08,17,07,19,18.80
2008,08,17,07,20,18.70
2008,08,17,07,21,18.50
2008,08,17,07,22,18.30
2008,08,17,07,23,18.20
2008,08,17,07,24,18.10
2008,08,17,07,25,18.00
2008,08,17,07,26,17.90
2008,08,17,07,27,17.80
2008,08,17,07,28,17.50
2008,08,17,07,29,17.30
2008,08,17,07,30,17.10
2008,08,17,07,31,17.00
2008,08,17,07,32,16.90
2008,08,17,07,33,16.90
2008,08,17,07,34,16.80
2008,08,17,07,35,16.70
2008,08,17,07,36,16.70
2008,08,17,07,37,16.70
2008,08,17,07,38,16.70
2008,08,17,07,39,16.70
2008,08,17,07,40,16.70
2008,08,17,07,41,16.60
2008,08,17,07,42,16.40
2008,08,17,07,43,16.20
2008,08,17,07,44,16.00
2008,08,17,07,45,15.60
2008,08,17,07,46,15.20
2008,08,17,07,47,14.90
2008,08,17,07,48,14.70
2008,08,17,07,49,14.40
2008,08,17,07,50,14.20
2008,08,17,07,51,14.00
2008,08,17,07,52,13.80
2008,08,17,07,53,13.70
2008,08,17,07,54,13.70
2008,08,17,07,55,13.50
2008,08,17,07,56,13.50
2008,08,17,07,57,13.40
2008,08,17,07,58,13.30
2008,08,17,07,59,13.30
2008,08,17,08,00,13.30
2008,08,17,08,01,13.30
2008,08,17,08,02,13.30
2008,08,17,08,03,13.30
2008,08,17,08,04,13.30
2008,08,17,08,05,13.30
2008,08,17,08,06,13.30
2008,08,17,08,07,13.30
2008,08,17,08,08,13.40
2008,08,17,08,09,13.50
2008,08,17,08,10,13.50
2008,08,17,08,11,13.60
2008,08,17,08,12,13.60
2008,08,17,08,13,13.70
2008,08,17,08,14,13.80
2008,08,17,08,15,13.90
2008,08,17,08,16,14.10
2008,08,17,08,17,14.20
2008,08,17,08,18,14.40
2008,08,17,08,19,14.50
2008,08,17,08,20,14.70
2008,08,17,08,21,14.90
2008,08,17,08,22,15.10
2008,08,17,08,23,15.30
2008,08,17,08,24,15.50
2008,08,17,08,25,15.60
2008,08,17,08,26,15.80
2008,08,17,08,27,16.00
2008,08,17,08,28,16.20
2008,08,17,08,29,16.40
2008,08,17,08,30,16.60
2008,08,17,08,31,16.90
2008,08,17,08,32,17.00
2008,08,17,08,33,17.20
2008,08,17,08,34,17.40
2008,08,17,08,35,17.60
2008,08,17,08,36,17.70
2008,08,17,08,37,17.90
2008,08,17,08,38,18.10
2008,08,17,08,39,18.20
2008,08,17,08,40,18.40
2008,08,17,08,41,18.50
2008,08,17,08,42,18.70
2008,08,17,08,43,18.80
2008,08,17,08,44,18.90
2008,08,17,08,45,19.00
2008,08,17,08,46,19.10
2008,08,17,08,47,19.20
2008,08,17,08,48,19.30
2008,08,17,08,49,19.40
2008,08,17,08,50,19.50
2008,08,17,08,51,19.60
2008,08,17,08,52,19.70
2008,08,17,08,53,19.80
2008,08,17,08,54,19.90
2008,08,17,08,55,20.10
2008,08,17,08,56,20.20
2008,08,17,08,57,20.30
2008,08,17,08,58,20.40
2008,08,17,08,59,20.60
2008,08,17,09,00,20.70
2008,08,17,09,01,20.80
2008,08,17,09,02,21.00
2008,08,17,09,03,21.20
2008,08,17,09,04,21.40
2008,08,17,09,05,21.60
2008,08,17,09,06,21.70
2008,08,17,09,07,22.00
2008,08,17,09,08,22.20
2008,08,17,09,09,22.30
2008,08,17,09,10,22.40
2008,08,17,09,11,22.50
2008,08,17,09,12,22.60
2008,08,17,09,13,22.50
2008,08,17,09,14,22.30
2008,08,17,09,15,21.90
2008,08,17,09,16,21.50
2008,08,17,09,17,21.20
2008,08,17,09,18,21.00
2008,08,17,09,19,21.00
2008,08,17,09,20,20.90
2008,08,17,09,21,20.80
2008,08,17,09,22,20.70
2008,08,17,09,23,20.70
2008,08,17,09,24,20.70
2008,08,17,09,25,20.60
2008,08,17,09,26,20.60
2008,08,17,09,27,20.40
2008,08,17,09,28,20.30
2008,08,17,09,29,20.30
2008,08,17,09,30,20.40
2008,08,17,09,31,20.40
2008,08,17,09,32,20.40
2008,08,17,09,33,20.30
2008,08,17,09,34,20.30
2008,08,17,09,35,20.30
2008,08,17,09,36,20.40
2008,08,17,09,37,20.50
2008,08,17,09,38,20.50
2008,08,17,09,39,20.50
2008,08,17,09,40,20.50
2008,08,17,09,41,20.50
2008,08,17,09,42,20.60
2008,08,17,09,43,20.60
2008,08,17,09,44,20.70
2008,08,17,09,45,20.70
2008,08,17,09,46,20.70
2008,08,17,09,47,20.80
2008,08,17,09,48,20.80
2008,08,17,09,49,20.90
2008,08,17,09,50,21.00
2008,08,17,09,51,21.00
2008,08,17,09,52,21.10
2008,08,17,09,53,21.20
2008,08,17,09,54,21.20
2008,08,17,09,55,21.20
2008,08,17,09,56,21.20
2008,08,17,09,57,21.20
2008,08,17,09,58,21.30
2008,08,17,09,59,21.30
2008,08,17,10,00,21.30
2008,08,17,10,01,21.30
2008,08,17,10,02,21.30
2008,08,17,10,03,21.40
2008,08,17,10,04,21.50
2008,08,17,10,05,21.60
2008,08,17,10,06,21.60
2008,08,17,10,07,21.70
2008,08,17,10,08,21.80
2008,08,17,10,09,21.80
2008,08,17,10,10,21.80
2008,08,17,10,11,21.80
2008,08,17,10,12,21.80
2008,08,17,10,13,21.80
2008,08,17,10,14,21.80
2008,08,17,10,15,21.80
2008,08,17,10,16,21.90
2008,08,17,10,17,21.90
2008,08,17,10,18,22.00
2008,08,17,10,19,22.00
2008,08,17,10,20,22.10
2008,08,17,10,21,22.10
2008,08,17,10,22,22.10
2008,08,17,10,23,22.20
2008,08,17,10,24,22.30
2008,08,17,10,25,22.30
2008,08,17,10,26,22.40
2008,08,17,10,27,22.40
2008,08,17,10,28,22.40
2008,08,17,10,29,22.40
2008,08,17,10,30,22.50
2008,08,17,10,31,22.50
2008,08,17,10,32,22.60
2008,08,17,10,33,22.70
2008,08,17,10,34,22.70
2008,08,17,10,35,22.80
2008,08,17,10,36,22.90
2008,08,17,10,37,23.00
2008,08,17,10,38,23.10
2008,08,17,10,39,23.30
2008,08,17,10,40,23.40
2008,08,17,10,41,23.50
2008,08,17,10,42,23.70
2008,08,17,10,43,23.80
2008,08,17,10,44,23.90
2008,08,17,10,45,24.00
2008,08,17,10,46,24.10
2008,08,17,10,47,24.30
2008,08,17,10,48,24.40
2008,08,17,10,49,24.60
2008,08,17,10,50,24.70
2008,08,17,10,51,24.80
2008,08,17,10,52,24.90
2008,08,17,10,53,25.00
2008,08,17,10,54,25.10
2008,08,17,10,55,25.20
2008,08,17,10,56,25.30
2008,08,17,10,57,25.40
2008,08,17,10,58,25.50
2008,08,17,10,59,25.60
2008,08,17,11,00,25.80
2008,08,17,11,01,25.90
2008,08,17,11,02,25.70
2008,08,17,11,03,25.30
2008,08,17,11,04,24.80
2008,08,17,11,05,24.40
2008,08,17,11,06,24.00
2008,08,17,11,07,23.80
2008,08,17,11,08,23.70
2008,08,17,11,09,23.60
2008,08,17,11,10,23.40
2008,08,17,11,11,23.40
2008,08,17,11,12,23.30
2008,08,17,11,13,23.20
2008,08,17,11,14,23.00
2008,08,17,11,15,22.80
2008,08,17,11,16,22.60
2008,08,17,11,17,22.40
2008,08,17,11,18,22.40
2008,08,17,11,19,22.40
2008,08,17,11,20,22.50
2008,08,17,11,21,22.50
2008,08,17,11,22,22.50
2008,08,17,11,23,22.50
2008,08,17,11,24,22.50
2008,08,17,11,25,22.60
2008,08,17,11,26,22.60
2008,08,17,11,27,22.60
2008,08,17,11,28,22.60
2008,08,17,11,29,22.50
2008,08,17,11,30,22.40
2008,08,17,11,31,22.30
2008,08,17,11,32,22.20
2008,08,17,11,33,22.10
2008,08,17,11,34,22.00
2008,08,17,11,35,22.00
2008,08,17,11,36,22.10
2008,08,17,11,37,22.10
2008,08,17,11,38,22.00
2008,08,17,11,39,21.90
2008,08,17,11,40,21.90
2008,08,17,11,41,21.90
2008,08,17,11,42,22.00
2008,08,17,11,43,22.00
2008,08,17,11,44,21.90
2008,08,17,11,45,21.70
2008,08,17,11,46,21.80
2008,08,17,11,47,21.90
2008,08,17,11,48,21.90
2008,08,17,11,49,22.00
2008,08,17,11,50,22.00
2008,08,17,11,51,22.00
2008,08,17,11,52,22.10
2008,08,17,11,53,22.20
2008,08,17,11,54,22.30
2008,08,17,11,55,22.20
2008,08,17,11,56,22.20
2008,08,17,11,57,22.10
2008,08,17,11,58,22.10
2008,08,17,11,59,22.10
2008,08,17,12,00,22.10
2008,08,17,12,01,22.30
2008,08,17,12,02,22.40
2008,08,17,12,03,22.50
2008,08,17,12,04,22.60
2008,08,17,12,05,22.70
2008,08,17,12,06,22.80
2008,08,17,12,07,22.90
2008,08,17,12,08,22.90
2008,08,17,12,09,23.10
2008,08,17,12,10,23.30
2008,08,17,12,11,23.30
2008,08,17,12,12,23.40
2008,08,17,12,13,23.40
2008,08,17,12,14,23.40
2008,08,17,12,15,23.40
2008,08,17,12,16,23.40
2008,08,17,12,17,23.40
2008,08,17,12,18,23.50
2008,08,17,12,19,23.70
2008,08,17,12,20,23.70
2008,08,17,12,21,23.80
2008,08,17,12,22,23.80
2008,08,17,12,23,23.80
2008,08,17,12,24,23.90
2008,08,17,12,25,23.90
2008,08,17,12,26,24.00
2008,08,17,12,27,23.90
2008,08,17,12,28,24.10
2008,08,17,12,29,24.10
2008,08,17,12,30,24.10
2008,08,17,12,31,24.10
2008,08,17,12,32,23.90
2008,08,17,12,33,23.80
2008,08,17,12,34,23.80
2008,08,17,12,35,23.70
2008,08,17,12,36,23.70
2008,08,17,12,37,23.70
2008,08,17,12,38,23.70
2008,08,17,12,39,23.70
2008,08,17,12,40,23.80
2008,08,17,12,41,23.80
2008,08,17,12,42,23.80
2008,08,17,12,43,23.90
2008,08,17,12,44,24.00
2008,08,17,12,45,24.10
2008,08,17,12,46,24.10
2008,08,17,12,47,24.10
2008,08,17,12,48,24.10
2008,08,17,12,49,24.00
2008,08,17,12,50,23.70
2008,08,17,12,51,23.30
2008,08,17,12,52,23.20
2008,08,17,12,53,23.20
2008,08,17,12,54,23.20
2008,08,17,12,55,23.30
2008,08,17,12,56,23.20
2008,08,17,12,57,23.10
2008,08,17,12,58,23.10
2008,08,17,12,59,23.20
2008,08,17,13,00,23.30
2008,08,17,13,01,23.40
2008,08,17,13,02,23.50
2008,08,17,13,03,23.70
2008,08,17,13,04,23.80
2008,08,17,13,05,23.90
2008,08,17,13,06,24.10
2008,08,17,13,07,24.10
2008,08,17,13,08,23.90
2008,08,17,13,09,23.90
2008,08,17,13,10,23.80
2008,08,17,13,11,23.70
2008,08,17,13,12,23.70
2008,08,17,13,13,23.70
2008,08,17,13,14,23.60
2008,08,17,13,15,23.60
2008,08,17,13,16,23.60
2008,08,17,13,17,23.60
2008,08,17,13,18,23.70
2008,08,17,13,19,23.70
2008,08,17,13,20,23.70
2008,08,17,13,21,23.80
2008,08,17,13,22,23.90
2008,08,17,13,23,24.10
2008,08,17,13,24,24.10
2008,08,17,13,25,24.10
2008,08,17,13,26,24.10
2008,08,17,13,27,24.10
2008,08,17,13,28,24.10
2008,08,17,13,29,24.10
2008,08,17,13,30,24.10
2008,08,17,13,31,24.10
2008,08,17,13,32,24.20
2008,08,17,13,33,24.30
2008,08,17,13,34,24.30
2008,08,17,13,35,24.40
2008,08,17,13,36,24.40
2008,08,17,13,37,24.50
2008,08,17,13,38,24.50
2008,08,17,13,39,24.50
2008,08,17,13,40,24.50
2008,08,17,13,41,24.40
2008,08,17,13,42,24.30
2008,08,17,13,43,24.30
2008,08,17,13,44,24.20
2008,08,17,13,45,24.20
2008,08,17,13,46,24.20
2008,08,17,13,47,24.20
2008,08,17,13,48,24.20
2008,08,17,13,49,24.30
2008,08,17,13,50,24.40
2008,08,17,13,51,24.50
2008,08,17,13,52,24.50
2008,08,17,13,53,24.50
2008,08,17,13,54,24.50
2008,08,17,13,55,24.40
2008,08,17,13,56,24.50
2008,08,17,13,57,24.50
2008,08,17,13,58,24.60
2008,08,17,13,59,24.60
2008,08,17,14,00,24.70
2008,08,17,14,01,24.70
2008,08,17,14,02,24.70
2008,08,17,14,03,24.80
2008,08,17,14,04,24.90
2008,08,17,14,05,24.90
2008,08,17,14,06,24.80
2008,08,17,14,07,24.70
2008,08,17,14,08,24.50
2008,08,17,14,09,24.50
2008,08,17,14,10,24.50
2008,08,17,14,11,24.60
2008,08,17,14,12,24.80
2008,08,17,14,13,24.80
2008,08,17,14,14,24.90
2008,08,17,14,15,25.10
2008,08,17,14,16,25.20
2008,08,17,14,17,25.40
2008,08,17,14,18,25.50
2008,08,17,14,19,25.70
2008,08,17,14,20,25.70
2008,08,17,14,21,25.80
2008,08,17,14,22,25.90
2008,08,17,14,23,26.10
2008,08,17,14,24,26.10
2008,08,17,14,25,26.10
2008,08,17,14,26,26.20
2008,08,17,14,27,26.20
2008,08,17,14,28,26.30
2008,08,17,14,29,26.30
2008,08,17,14,30,26.30
2008,08,17,14,31,26.30
2008,08,17,14,32,26.30
2008,08,17,14,33,26.20
2008,08,17,14,34,26.10
2008,08,17,14,35,26.10
2008,08,17,14,36,26.10
2008,08,17,14,37,26.20
2008,08,17,14,38,26.20
2008,08,17,14,39,26.20
2008,08,17,14,40,26.20
2008,08,17,14,41,26.10
2008,08,17,14,42,26.00
2008,08,17,14,43,26.00
2008,08,17,14,44,26.00
2008,08,17,14,45,26.00
2008,08,17,14,46,26.10
2008,08,17,14,47,25.90
2008,08,17,14,48,25.80
2008,08,17,14,49,25.70
2008,08,17,14,50,25.60
2008,08,17,14,51,25.60
2008,08,17,14,52,25.50
2008,08,17,14,53,25.50
2008,08,17,14,54,25.60
2008,08,17,14,55,25.60
2008,08,17,14,56,25.60
2008,08,17,14,57,25.60
2008,08,17,14,58,25.60
2008,08,17,14,59,25.60
2008,08,17,15,00,25.50
2008,08,17,15,01,25.50
2008,08,17,15,02,25.60
2008,08,17,15,03,25.60
2008,08,17,15,04,25.80
2008,08,17,15,05,25.90
2008,08,17,15,06,26.00
2008,08,17,15,07,26.10
2008,08,17,15,08,26.20
2008,08,17,15,09,26.30
2008,08,17,15,10,26.40
2008,08,17,15,11,26.40
2008,08,17,15,12,26.60
2008,08,17,15,13,26.60
2008,08,17,15,14,26.60
2008,08,17,15,15,26.70
2008,08,17,15,16,26.80
2008,08,17,15,17,26.80
2008,08,17,15,18,26.80
2008,08,17,15,19,26.80
2008,08,17,15,20,26.80
2008,08,17,15,21,26.60
2008,08,17,15,22,26.60
2008,08,17,15,23,26.40
2008,08,17,15,24,26.30
2008,08,17,15,25,26.10
2008,08,17,15,26,25.90
2008,08,17,15,27,25.80
2008,08,17,15,28,25.70
2008,08,17,15,29,25.70
2008,08,17,15,30,25.70
2008,08,17,15,31,25.70
2008,08,17,15,32,25.80
2008,08,17,15,33,25.80
2008,08,17,15,34,25.90
2008,08,17,15,35,25.90
2008,08,17,15,36,26.00
2008,08,17,15,37,26.10
2008,08,17,15,38,26.10
2008,08,17,15,39,26.10
2008,08,17,15,40,26.10
2008,08,17,15,41,26.20
2008,08,17,15,42,26.20
2008,08,17,15,43,26.30
2008,08,17,15,44,26.30
2008,08,17,15,45,26.40
2008,08,17,15,46,26.40
2008,08,17,15,47,26.60
2008,08,17,15,48,26.60
2008,08,17,15,49,26.60
2008,08,17,15,50,26.60
2008,08,17,15,51,26.60
2008,08,17,15,52,26.60
2008,08,17,15,53,26.60
2008,08,17,15,54,26.60
2008,08,17,15,55,26.60
2008,08,17,15,56,26.70
2008,08,17,15,57,26.70
2008,08,17,15,58,26.80
2008,08,17,15,59,26.80
2008,08,17,16,00,26.90
2008,08,17,16,01,26.90
2008,08,17,16,02,27.00
2008,08,17,16,03,27.10
2008,08,17,16,04,27.10
2008,08,17,16,05,27.20
2008,08,17,16,06,27.20
2008,08,17,16,07,27.30
2008,08,17,16,08,27.30
2008,08,17,16,09,27.30
2008,08,17,16,10,27.30
2008,08,17,16,11,27.30
2008,08,17,16,12,27.30
2008,08,17,16,13,27.30
2008,08,17,16,14,27.10
2008,08,17,16,15,26.90
2008,08,17,16,16,26.80
2008,08,17,16,17,26.60
2008,08,17,16,18,26.50
2008,08,17,16,19,26.40
2008,08,17,16,20,26.30
2008,08,17,16,21,26.30
2008,08,17,16,22,26.20
2008,08,17,16,23,26.20
2008,08,17,16,24,26.20
2008,08,17,16,25,26.20
2008,08,17,16,26,26.10
2008,08,17,16,27,26.10
2008,08,17,16,28,26.10
2008,08,17,16,29,26.00
2008,08,17,16,30,26.00
2008,08,17,16,31,25.90
2008,08,17,16,32,25.90
2008,08,17,16,33,25.80
2008,08,17,16,34,25.80
2008,08,17,16,35,25.80
2008,08,17,16,36,25.70
2008,08,17,16,37,25.60
2008,08,17,16,38,25.50
2008,08,17,16,39,25.40
2008,08,17,16,40,25.40
2008,08,17,16,41,25.30
2008,08,17,16,42,25.30
2008,08,17,16,43,25.20
2008,08,17,16,44,25.20
2008,08,17,16,45,25.10
2008,08,17,16,46,25.10
2008,08,17,16,47,25.10
2008,08,17,16,48,25.00
2008,08,17,16,49,25.00
2008,08,17,16,50,25.00
2008,08,17,16,51,25.00
2008,08,17,16,52,25.00
2008,08,17,16,53,25.00
2008,08,17,16,54,25.10
2008,08,17,16,55,25.10
2008,08,17,16,56,25.10
2008,08,17,16,57,25.10
2008,08,17,16,58,25.10
2008,08,17,16,59,25.10
2008,08,17,17,00,25.10
2008,08,17,17,01,25.00
2008,08,17,17,02,25.00
2008,08,17,17,03,25.00
2008,08,17,17,04,24.90
2008,08,17,17,05,24.80
2008,08,17,17,06,24.80
2008,08,17,17,07,24.70
2008,08,17,17,08,24.70
2008,08,17,17,09,24.60
2008,08,17,17,10,24.50
2008,08,17,17,11,24.40
2008,08,17,17,12,24.30
2008,08,17,17,13,24.20
2008,08,17,17,14,24.10
2008,08,17,17,15,24.10
2008,08,17,17,16,24.00
2008,08,17,17,17,23.90
2008,08,17,17,18,23.90
2008,08,17,17,19,23.90